Showing default

ANGELS, 44876

Orbit data source: Space-Track

ANGELS, 44876 is a payload satellite owned by CNES (FR) in SSO that was launched on Wed, 18 Dec 2019 UTC via a SOYUZ-ST-A launch vehicle from the French Guiana (FRGUI). Payload-class satellites include a variety of spacecraft equipped with specific instruments for various scientific and technological missions. These include communications satellites like Starlink; space stations such as the ISS; scientific satellites like the Hubble; Earth observation satellites from companies like Planet Labs, Umbra, and HawkEye 360; GPS; miniature CubeSats for education and research; and military/defense satellites.

Loading next visibility...
Identifier
44876, 2019-092D
Orbit
SSO
Last TLE update
10 hours ago
Origin
Manufacturer
Hemeria
Mission
Non-operational Civil Communications
Bus & Motor
CUBESAT 12U, Unknown motor
Mass
27 kg wet, 27 kg dry
Launch date (UTC)
2019-12-18 (6 years ago)
Launch vehicle
SOYUZ-ST-A
Launch site
French Guiana (FRGUI)
Object type
Payload
Rocket body
Debris
Shape & HBR
Box + 2 Pan, Unknown HBR
Radar Cross Section
0.126 m², Medium (>0.1 m² and < 1m²)

Expand to show TLE details & history

TLE from 10 hours ago
0 ANGELS
1 44876U 19092D   25171.00989145  .00020158  00000-0  43031-3 0  9992
2 44876  97.4560   9.7049 0008218  92.9744 267.2445 15.44872056305757
Epoch: 2025-06-20T00:14Z
TLE epoch observation values (Epoch: 2025-06-20T00:14:14.621Z)
Latitude
-0.00001°
Longitude
97.67461°
Altitude
435.15 km
Speed
7.65 km/s
True Right ascension
00h 38m 49s
True Declination
0° 00' 00"
Sunlit
Object was in daylight at epoch
Visualization orbit readout
Latitude
65.22402°
Longitude
-65.52787°
Altitude
437.812 km
Speed
7.658 km/s
Apparent Right ascension
10h 39m 05s
Apparent Declination
18° 08' 11"
Sunlit
Object is in daylight
Visualization observer readout
Local Sidereal Time
20:58:18
Azimuth
332.9° NNW
Elevation
-27.375°
Doppler factor
1
Orbital elements
Apogee altitude
434.283 km
Perigee altitude
423.095 km
Semi-major axis
6,806.826 km
Eccentricity
0.00082
Inclination
97.456°
RAAN
9.7049°
Arg. of periapsis
92.9744°
True anomaly
Unknown
Mean anomaly
267.2445°
Eccentric anomaly
Unknown
Mean motion
3.86479 °/min
Orbital period
93.15 mins
BSTAR
0.00043031
Loading maneuver chart data...
Loading SW <> Apogee altitude chart data...
Loading historical data...
Loading historical data...
Loading historical data...
Loading historical data...
Loading historical data...
Loading historical data...
Loading historical data...

ANGELS Visibility forecast

Observer location: undefined°, undefined°

Span
Click to sort rows by Start time (UTC) header in descending order
Start Az.
Max El. time (UTC)
Max El. Az.
Max El.
End time (UTC)
End Az.
4 mins2025-06-20 12:49:17.499Z126.419° SE2025-06-20 12:51:17.499Z69.039° E27.521°2025-06-20 12:53:17.499Z16.715° NNE
4 mins2025-06-21 01:41:17.499Z47.164° ENE2025-06-21 01:43:17.499Z112.684° SE27.692°2025-06-21 01:45:17.499Z158.734° S
|